This is the latest recevied weather packets stored in our database for station/object DL1GHN-6. If no packets are shown the sender has not sent any weather packets the latest 10 day(s).
| Time | Temp. | Humidity | Pressure | Rain* | Wind** | Luminosity | Snow |
|---|---|---|---|---|---|---|---|
| 1777889270 | 20.56° C | 50% | 1013.8 hPa | 0 mm | - | 464 W/m² | - |
| 1777888971 | 20.56° C | 54% | 1013.8 hPa | 0 mm | - | 468 W/m² | - |
| 1777888671 | 20.56° C | 53% | 1013.8 hPa | 0 mm | - | 480 W/m² | - |
| 1777888371 | 20.56° C | 54% | 1013.8 hPa | 0 mm | - | 450 W/m² | - |
| 1777888072 | 20.56° C | 54% | 1013.9 hPa | 0 mm | - | 504 W/m² | - |
| 1777887770 | 20° C | 53% | 1013.9 hPa | 0 mm | - | 494 W/m² | - |
| 1777887472 | 20° C | 59% | 1013.9 hPa | 0 mm | - | 457 W/m² | - |
| 1777887171 | 20° C | 57% | 1014 hPa | 0 mm | - | 455 W/m² | - |
| 1777886871 | 19.44° C | 59% | 1014 hPa | 0 mm | - | 501 W/m² | - |
| 1777886571 | 19.44° C | 56% | 1014 hPa | 0 mm | - | 403 W/m² | - |
| 1777886270 | 19.44° C | 60% | 1014.1 hPa | 0 mm | - | 478 W/m² | - |
| 1777885971 | 19.44° C | 61% | 1014.2 hPa | 0 mm | - | 524 W/m² | - |
| 1777885670 | 19.44° C | 59% | 1014.2 hPa | 0 mm | - | 452 W/m² | - |
| 1777885371 | 18.89° C | 62% | 1014.3 hPa | 0 mm | - | 471 W/m² | - |
| 1777885070 | 18.89° C | 64% | 1014.2 hPa | 0 mm | - | 418 W/m² | - |
| 1777884770 | 18.33° C | 63% | 1014.2 hPa | 0 mm | - | 366 W/m² | - |
| 1777884470 | 18.33° C | 61% | 1014.2 hPa | 0 mm | - | 304 W/m² | - |
| 1777884170 | 17.78° C | 63% | 1014.3 hPa | 0 mm | - | 318 W/m² | - |
| 1777883871 | 17.78° C | 62% | 1014.2 hPa | 0 mm | - | 364 W/m² | - |
| 1777883571 | 17.78° C | 66% | 1014.2 hPa | 0 mm | - | 330 W/m² | - |
| 1777883271 | 17.78° C | 66% | 1014.3 hPa | 0 mm | - | 497 W/m² | - |
| 1777882971 | 17.22° C | 67% | 1014.4 hPa | 0 mm | - | 492 W/m² | - |
| 1777882670 | 17.22° C | 66% | 1014.5 hPa | 0 mm | - | 476 W/m² | - |
| 1777882370 | 16.67° C | 68% | 1014.4 hPa | 0 mm | - | 497 W/m² | - |
| 1777882070 | 16.67° C | 70% | 1014.4 hPa | 0 mm | - | 480 W/m² | - |
* Rain latest hour (hover to see other rain measurements)
** Current wind speed in m/s (hover to see current wind gust speed)